QPF
0.00 0.00 0.00 0.00 0.00 0.00 0.00 0.00 0.00 0.00 0.00 0.00 0.00 0.00 0.00 0.00 0.00 0.00 0.00 0.00 0.00 0.00 0.00 0.00 0.00 0.00 0.00 0.00 0.00 0.00 0.00 0.00 0.00 0.00 0.00 0.00 0.00 0.00 0.00 0.00 0.00 0.00 0.00 0.00 0.00
0.00 0.00 0.00 0.00 0.00 0.00 0.00 0.00 0.00 0.00 0.00 0.00 0.00 0.00 0.00 0.00 0.00 0.00 0.00 0.00 0.00 0.00 0.00 0.00 0.00 0.00 0.00 0.00 0.00 0.00 0.00 0.00 0.01 0.00 0.00 0.00 0.00 0.00 0.00 0.00 0.00 0.00 0.00 0.00 0.00
0.00 0.00 0.00 0.00 0.00 0.00 0.00 0.00 0.00 0.00 0.00 0.00 0.00 0.00 0.00 0.00 0.00 0.00 0.00 0.00 0.00 0.00 0.00 0.00 0.00 0.00 0.00 0.00 0.00 0.00 0.00 0.00 0.00 0.00 0.00 0.00 0.00 0.00 0.00 0.00 0.00 0.00 0.00 0.00 0.00
0.00 0.00 0.00 0.00 0.00 0.00 0.00 0.00 0.00 0.00 0.00 0.00 0.00 0.00 0.00 0.00 0.00 0.00 0.00 0.00 0.00 0.00 0.00 0.00 0.00 0.00 0.00 0.00 0.00 0.00 0.00 0.00 0.00 0.00 0.00 0.00 0.00 0.00 0.00 0.00 0.00 0.00 0.00 0.00 0.00
0.00 0.00 0.00 0.00 0.00 0.00 0.00 0.00 0.00 0.00 0.00 0.00 0.00 0.00 0.00 0.00 0.00 0.00 0.00 0.00 0.00 0.00 0.00 0.00 0.00 0.00 0.00 0.00 0.00 0.00 0.00 0.00 0.00 0.00 0.00 0.00 0.00 0.00 0.00 0.00 0.00 0.00 0.00 0.00 0.00
0.00 0.00 0.00 0.00 0.00 0.00 0.00 0.00 0.00 0.00 0.00 0.00 0.00 0.00 0.00 0.00 0.00 0.00 0.00 0.00 0.00 0.00 0.00 0.00 0.00 0.00 0.00 0.00 0.00 0.00 0.00 0.00 0.00 0.00 0.00 0.00 0.00 0.00 0.00 0.00 0.00 0.00 0.00 0.00 0.00
0.00 0.00 0.00 0.00 0.00 0.00 0.00 0.00 0.00 0.00 0.00 0.00 0.00 0.00 0.00 0.00 0.00 0.00 0.00 0.00 0.00 0.00 0.00 0.00 0.00 0.00 0.00 0.00 0.00 0.00 0.00 0.00 0.00 0.00 0.00 0.00 0.00 0.00 0.00 0.00 0.00 0.00 0.00 0.00 0.00
0.00 0.00 0.00 0.00 0.00 0.00 0.00 0.00 0.00 0.00 0.00 0.00 0.00 0.00 0.00 0.00 0.00 0.00 0.00 0.00 0.00 0.00 0.00 0.00 0.00 0.00 0.00 0.00 0.00 0.00 0.00 0.00 0.00 0.00 0.00 0.00 0.00 0.00 0.00 0.00 0.00 0.00 0.00 0.00 0.00
0.00 0.00 0.00 0.00 0.00 0.00 0.00 0.00 0.00 0.00 0.00 0.00 0.00 0.00 0.00 0.00 0.00 0.00 0.00 0.00 0.00 0.00 0.00 0.00 0.00 0.00 0.00 0.00 0.00 0.00 0.00 0.00 0.00 0.00 0.00 0.00 0.00 0.00 0.00 0.00 0.00 0.00 0.00 0.00 0.00
0.00 0.00 0.00 0.00 0.00 0.00 0.00 0.00 0.00 0.00 0.00 0.00 0.00 0.00 0.00 0.00 0.00 0.00 0.00 0.00 0.00 0.00 0.00 0.00 0.00 0.00 0.00 0.00 0.00 0.00 0.00 0.00 0.00 0.00 0.00 0.00 0.00 0.00 0.00 0.00 0.00 0.00 0.00 0.00 0.00
0.00 0.00 0.00 0.00 0.00 0.00 0.00 0.00 0.00 0.00 0.00 0.00 0.00 0.00 0.00 0.00 0.00 0.00 0.00 0.00 0.00 0.00 0.00 0.00 0.00 0.00 0.00 0.00 0.00 0.00 0.00 0.00 0.00 0.00 0.00 0.00 0.00 0.00 0.00 0.00 0.00 0.00 0.00 0.00 0.00
0.00 0.00 0.00 0.00 0.00 0.00 0.00 0.00 0.00 0.00 0.00 0.00 0.00 0.00 0.00 0.00 0.00 0.00 0.00 0.00 0.00 0.00 0.00 0.00 0.00 0.00 0.00 0.00 0.00 0.00 0.00 0.00 0.00 0.00 0.00 0.00 0.00 0.00 0.00 0.00 0.00 0.00 0.00 0.00 0.00
0.00 0.00 0.00 0.00 0.00 0.00 0.00 0.00 0.00 0.00 0.00 0.00 0.00 0.00 0.00 0.00 0.00 0.00 0.00 0.00 0.00 0.00 0.00 0.00 0.00 0.00 0.00 0.00 0.00 0.00 0.00 0.00 0.00 0.00 0.00 0.00 0.00 0.00 0.00 0.00 0.00 0.00 0.00 0.00 0.00
0.00 0.00 0.00 0.00 0.00 0.00 0.00 0.00 0.00 0.00 0.00 0.00 0.00 0.00 0.00 0.00 0.00 0.00 0.00 0.00 0.00 0.00 0.00 0.00 0.00 0.00 0.00 0.00 0.00 0.00 0.00 0.00 0.00 0.00 0.00 0.00 0.00 0.00 0.00 0.00 0.00 0.00 0.00 0.00 0.00
0.00 0.00 0.00 0.00 0.00 0.00 0.00 0.00 0.00 0.00 0.00 0.00 0.00 0.00 0.00 0.00 0.00 0.00 0.00 0.00 0.00 0.00 0.00 0.00 0.00 0.00 0.00 0.00 0.00 0.00 0.00 0.00 0.00 0.00 0.00 0.00 0.00 0.00 0.00 0.00 0.00 0.00 0.00 0.00 0.00
0.00 0.00 0.00 0.00 0.00 0.00 0.00 0.00 0.00 0.00 0.00 0.00 0.00 0.00 0.00 0.00 0.00 0.00 0.00 0.00 0.00 0.00 0.00 0.00 0.00 0.00 0.00 0.00 0.00 0.00 0.00 0.00 0.00 0.00 0.00 0.00 0.00 0.00 0.00 0.00 0.00 0.00 0.00 0.00 0.00
0.00 0.00 0.00 0.00 0.00 0.00 0.00 0.00 0.00 0.00 0.00 0.00 0.00 0.00 0.00 0.00 0.00 0.00 0.00 0.00 0.00 0.00 0.00 0.00 0.00 0.00 0.00 0.00 0.00 0.00 0.00 0.00 0.00 0.00 0.00 0.00 0.00 0.00 0.00 0.00 0.00 0.00 0.00 0.00 0.00
0.00 0.00 0.00 0.00 0.00 0.00 0.00 0.00 0.00 0.00 0.00 0.00 0.00 0.00 0.00 0.00 0.00 0.00 0.00 0.00 0.00 0.00 0.00 0.00 0.00 0.00 0.00 0.00 0.00 0.00 0.00 0.00 0.00 0.00 0.00 0.00 0.00 0.00 0.00 0.00 0.00 0.00 0.00 0.00 0.00
0.00 0.00 0.00 0.00 0.00 0.00 0.00 0.00 0.00 0.00 0.00 0.00 0.00 0.00 0.00 0.00 0.00 0.00 0.00 0.00 0.00 0.00 0.00 0.00 0.00 0.00 0.00 0.00 0.00 0.00 0.00 0.00 0.00 0.00 0.00 0.00 0.00 0.00 0.00 0.00 0.00 0.00 0.00 0.00 0.00
0.00 0.00 0.00 0.00 0.00 0.00 0.00 0.00 0.00 0.00 0.00 0.00 0.00 0.00 0.00 0.00 0.00 0.00 0.00 0.00 0.00 0.00 0.00 0.00 0.00 0.00 0.00 0.00 0.00 0.00 0.00 0.00 0.00 0.00 0.00 0.00 0.00 0.00 0.00 0.00 0.00 0.00 0.00 0.00 0.00
0.00 0.00 0.00 0.00 0.00 0.00 0.00 0.00 0.00 0.00 0.00 0.00 0.00 0.00 0.00 0.00 0.00 0.00 0.00 0.00 0.00 0.00 0.00 0.00 0.00 0.00 0.00 0.00 0.00 0.00 0.00 0.00 0.00 0.00 0.00 0.00 0.00 0.00 0.00 0.00 0.00 0.00 0.00 0.00 0.00
0.00 0.00 0.00 0.00 0.00 0.00 0.00 0.00 0.00 0.00 0.00 0.00 0.00 0.00 0.00 0.00 0.00 0.00 0.00 0.00 0.00 0.00 0.00 0.00 0.00 0.00 0.00 0.00 0.00 0.00 0.00 0.00 0.00 0.00 0.00 0.00 0.00 0.00 0.00 0.00 0.00 0.00 0.00 0.00 0.00
0.00 0.00 0.00 0.00 0.00 0.00 0.00 0.00 0.00 0.00 0.00 0.00 0.00 0.00 0.00 0.00 0.00 0.00 0.00 0.00 0.00 0.00 0.00 0.00 0.00 0.00 0.00 0.00 0.00 0.00 0.00 0.00 0.00 0.00 0.00 0.00 0.00 0.00 0.00 0.00 0.00 0.00 0.00 0.00 0.00
0.00 0.00 0.00 0.00 0.00 0.00 0.00 0.00 0.00 0.00 0.01 0.00 0.00 0.00 0.00 0.00 0.00 0.00 0.00 0.00 0.00 0.00 0.00 0.00 0.00 0.00 0.00 0.00 0.00 0.00 0.00 0.00 0.00 0.00 0.00 0.00 0.00 0.00 0.00 0.00 0.00 0.00 0.00 0.00 0.00
0.00 0.00 0.00 0.00 0.00 0.00 0.00 0.00 0.00 0.00 0.00 0.00 0.00 0.00 0.00 0.00 0.00 0.00 0.00 0.00 0.00 0.00 0.00 0.00 0.00 0.00 0.00 0.00 0.00 0.00 0.00 0.00 0.00 0.00 0.00 0.00 0.00 0.00 0.00 0.00 0.00 0.00 0.00 0.00 0.00
0.00 0.00 0.00 0.00 0.00 0.00 0.00 0.00 0.00 0.00 0.00 0.00 0.01 0.00 0.00 0.00 0.00 0.00 0.00 0.00 0.00 0.00 0.00 0.00 0.00 0.00 0.00 0.00 0.00 0.00 0.00 0.00 0.00 0.00 0.00 0.00 0.00 0.00 0.00 0.00 0.00 0.00 0.00 0.00 0.00
0.00 0.01 0.01 0.00 0.00 0.00 0.00 0.00 0.00 0.00 0.00 0.01 0.01 0.00 0.00 0.00 0.00 0.00 0.00 0.00 0.00 0.00 0.00 0.00 0.00 0.00 0.00 0.00 0.00 0.00 0.00 0.00 0.00 0.00 0.00 0.00 0.00 0.00 0.00 0.00 0.00 0.00 0.00 0.00 0.00
MSLP
1019.11 1018.66 1018.14 1017.65 1017.19 1016.73 1016.24 1015.77 1015.33 1014.96 1014.65 1014.37 1014.04 1013.79 1013.45 1013.01 1012.42 1012.05 1010.28 1007.33 1007.70 1007.95 1008.52 1009.13 1009.47 1009.54 1009.91 1010.07 1010.08 1010.04 1009.32 1008.19 1007.55 1007.16 1006.57 1006.91 1007.16 1008.22 1008.85 1009.39 1010.08 1010.58 1011.02 1011.78 1013.45
1019.06 1018.56 1018.07 1017.51 1016.99 1016.51 1016.05 1015.60 1015.10 1014.62 1014.35 1014.09 1013.86 1013.59 1013.29 1012.90 1012.14 1009.94 1006.08 1006.48 1007.09 1007.29 1008.03 1008.21 1008.63 1009.21 1009.56 1009.85 1009.94 1009.61 1008.93 1007.40 1006.96 1006.63 1006.23 1006.55 1006.75 1007.67 1008.58 1009.20 1009.93 1010.71 1011.39 1012.45 1013.49
1019.02 1018.51 1018.02 1017.42 1016.78 1016.20 1015.67 1015.24 1014.81 1014.34 1013.96 1013.81 1013.59 1013.38 1013.07 1012.74 1011.10 1006.29 1005.00 1005.94 1006.61 1006.62 1007.45 1008.00 1008.55 1008.81 1009.19 1009.71 1009.57 1009.15 1007.98 1007.05 1006.36 1006.05 1005.93 1006.16 1006.56 1007.16 1007.89 1008.69 1009.24 1010.12 1011.31 1012.48 1013.25
1019.07 1018.53 1017.95 1017.36 1016.64 1015.93 1015.34 1014.73 1014.26 1013.88 1013.49 1013.29 1013.29 1013.12 1012.84 1012.47 1009.12 1005.21 1004.77 1005.40 1006.25 1006.61 1007.20 1007.86 1008.43 1008.33 1008.45 1008.72 1008.79 1008.59 1007.53 1006.76 1005.98 1005.62 1005.62 1005.85 1006.23 1006.80 1007.43 1007.85 1008.52 1010.09 1010.98 1011.98 1012.87
1019.13 1018.56 1017.92 1017.22 1016.43 1015.60 1014.83 1014.21 1013.62 1013.18 1012.93 1012.80 1012.87 1012.91 1012.63 1011.19 1007.24 1005.27 1005.35 1005.85 1006.38 1006.56 1006.57 1007.00 1007.66 1007.60 1007.60 1007.86 1008.14 1007.85 1006.95 1006.38 1005.86 1005.44 1005.24 1005.65 1006.04 1006.38 1007.33 1007.92 1008.74 1009.95 1011.30 1012.03 1012.56
1019.09 1018.41 1017.77 1017.02 1016.15 1015.25 1014.34 1013.58 1012.85 1012.24 1012.01 1012.15 1012.41 1012.65 1012.15 1009.37 1005.27 1005.18 1005.32 1005.78 1005.78 1006.10 1006.43 1006.74 1006.88 1007.19 1007.26 1007.20 1007.10 1006.53 1006.56 1005.97 1005.32 1004.86 1004.82 1005.16 1005.90 1006.66 1007.29 1008.15 1009.23 1010.08 1010.78 1011.69 1012.28
1018.90 1018.19 1017.50 1016.73 1015.76 1014.75 1013.80 1012.86 1011.84 1010.95 1010.76 1011.21 1011.74 1012.14 1010.89 1006.34 1005.18 1005.03 1005.24 1005.25 1005.28 1005.30 1005.68 1006.13 1006.72 1006.76 1006.81 1006.57 1006.46 1005.99 1005.83 1005.41 1004.66 1004.48 1004.40 1004.96 1005.75 1005.83 1007.09 1008.01 1008.91 1010.18 1010.42 1011.25 1011.91
1018.66 1017.78 1017.10 1016.38 1015.33 1014.23 1013.29 1012.16 1010.92 1009.81 1009.63 1010.22 1011.09 1011.53 1008.42 1005.24 1005.17 1005.31 1005.46 1005.79 1006.06 1006.06 1005.91 1006.55 1006.96 1006.74 1006.78 1006.46 1005.96 1005.49 1005.31 1004.48 1003.80 1003.91 1003.98 1004.39 1003.90 1005.20 1006.64 1007.21 1008.33 1009.54 1010.32 1010.72 1011.33
1018.70 1017.86 1016.79 1015.92 1014.72 1013.44 1012.63 1011.81 1010.81 1009.91 1009.88 1010.36 1011.11 1010.67 1006.67 1005.10 1004.87 1004.44 1004.95 1004.92 1005.87 1006.66 1006.76 1006.92 1007.09 1006.88 1006.79 1006.51 1005.92 1005.27 1004.02 1003.78 1003.35 1003.36 1003.46 1003.76 1003.24 1004.05 1005.65 1006.57 1007.57 1008.60 1009.45 1010.04 1010.72
1018.60 1017.85 1016.75 1015.75 1014.53 1013.07 1011.96 1011.35 1010.96 1010.73 1010.81 1010.58 1010.48 1010.25 1005.88 1003.93 1003.60 1003.95 1004.56 1004.80 1005.52 1006.40 1006.74 1006.53 1006.72 1006.40 1006.19 1005.76 1004.56 1004.79 1004.36 1003.64 1002.97 1002.79 1002.96 1003.22 1002.97 1003.91 1004.81 1005.55 1006.37 1007.45 1008.44 1009.18 1009.52
1018.63 1017.77 1016.85 1015.39 1014.58 1013.29 1011.86 1011.13 1011.13 1010.90 1010.33 1008.73 1007.94 1006.67 1004.74 1003.49 1003.22 1003.58 1003.92 1004.44 1005.14 1005.72 1005.51 1005.92 1005.82 1004.22 1004.92 1005.53 1005.30 1005.08 1004.47 1003.52 1002.97 1002.81 1002.62 1002.53 1002.44 1003.19 1004.27 1005.01 1005.76 1006.51 1007.34 1007.97 1008.11
1018.59 1017.69 1016.70 1015.38 1014.48 1013.44 1012.41 1012.50 1014.08 1014.57 1011.22 1007.68 1006.65 1006.07 1004.84 1004.42 1003.29 1003.28 1003.53 1003.37 1004.11 1004.27 1005.04 1005.58 1003.49 1004.27 1005.04 1005.44 1005.45 1005.05 1004.38 1003.57 1003.40 1003.07 1002.88 1002.22 1002.15 1002.66 1003.44 1003.64 1004.48 1005.16 1006.22 1006.68 1007.70
1018.65 1017.75 1016.58 1015.46 1014.31 1013.92 1014.01 1014.14 1014.67 1014.20 1012.32 1006.45 1005.36 1004.39 1003.70 1004.01 1003.11 1002.33 1002.48 1002.22 1002.64 1003.26 1003.28 1002.53 1002.55 1003.96 1004.44 1004.64 1004.67 1004.30 1003.76 1003.47 1003.31 1003.15 1002.77 1002.49 1002.03 1002.55 1002.96 1003.70 1004.29 1004.83 1005.45 1006.32 1006.37
1018.55 1017.75 1016.79 1015.65 1014.47 1014.80 1014.19 1014.49 1014.44 1014.11 1011.39 1005.80 1004.06 1002.55 1002.69 1002.62 1001.95 1001.58 1001.66 1001.53 1001.88 1001.64 1002.69 1002.73 1002.91 1003.04 1003.44 1003.45 1003.94 1003.31 1003.70 1003.77 1003.70 1003.64 1002.59 1002.55 1001.14 1001.78 1002.11 1002.80 1003.27 1003.78 1004.34 1004.67 1005.42
1018.42 1017.71 1016.73 1016.12 1015.95 1015.16 1014.50 1014.21 1013.99 1013.85 1009.32 1003.77 1002.74 1002.06 1001.98 1001.71 1000.83 1000.75 1000.84 1000.94 1000.31 1000.52 1001.48 1000.64 1001.45 1002.08 1002.28 1001.80 1003.19 1002.78 1003.38 1003.50 1003.44 1003.20 1002.88 1002.15 1001.74 1000.31 1001.41 1001.63 1001.84 1002.38 1002.74 1003.43 1003.79
1018.08 1017.30 1016.78 1016.22 1015.92 1014.94 1014.43 1013.89 1013.42 1011.90 1006.52 1003.01 1002.27 1001.97 1001.96 1001.37 1000.56 1000.36 1000.26 1000.42 1000.25 1000.46 1000.42 1000.32 1000.98 1001.30 1000.93 1001.72 1002.31 1002.84 1003.16 1003.47 1003.61 1003.06 1001.72 1001.02 1001.23 999.03 999.82 999.66 1000.18 1000.97 1001.53 1002.25 1002.82
1017.93 1016.86 1016.52 1016.22 1015.48 1014.45 1014.12 1013.08 1012.10 1009.29 1005.20 1004.44 1003.37 1002.89 1002.36 1001.46 1000.69 1000.21 999.81 999.39 998.67 999.37 999.50 1000.13 1000.21 1000.29 1000.60 1001.07 1001.83 1002.09 1002.18 1002.48 1002.91 1002.01 999.61 1000.42 1000.53 998.34 998.34 998.55 998.49 999.12 999.91 1000.51 1001.33
1017.71 1016.67 1016.32 1015.81 1015.19 1014.65 1013.55 1012.44 1010.68 1008.31 1007.22 1006.16 1004.95 1003.70 1002.69 1002.28 1001.36 1000.65 999.78 999.24 998.94 998.76 998.89 999.05 999.28 998.91 998.99 998.97 999.60 1000.42 1000.57 999.90 1000.16 999.76 999.91 1000.49 997.81 996.83 997.45 997.80 997.95 998.17 998.33 999.19 1000.38
1017.41 1016.65 1016.08 1015.55 1015.04 1014.48 1013.47 1012.02 1010.52 1009.94 1009.39 1007.92 1005.99 1004.65 1003.71 1003.19 1002.72 1001.54 1000.73 999.93 999.55 999.37 998.96 998.55 997.81 997.75 998.03 998.48 998.93 999.61 999.36 999.81 1000.07 1000.70 999.85 998.37 997.21 997.15 996.87 996.39 996.67 996.93 997.38 998.10 998.75
1018.12 1017.36 1016.01 1015.52 1014.98 1014.31 1013.49 1012.51 1011.76 1011.34 1010.40 1008.99 1007.72 1006.72 1005.43 1004.59 1003.52 1002.61 1002.09 1002.99 1001.35 1001.19 1000.60 999.02 998.12 997.38 997.49 998.06 998.13 998.43 999.68 1000.29 1000.11 999.51 998.81 997.29 996.77 994.97 995.17 995.34 995.50 995.86 996.40 996.71 997.32
1018.47 1017.24 1015.79 1015.34 1014.75 1014.22 1014.21 1013.94 1013.03 1012.34 1011.70 1010.17 1008.96 1008.10 1007.12 1006.31 1005.23 1004.23 1004.14 1004.33 1003.50 1002.28 1001.41 1000.41 998.98 998.06 997.50 996.62 996.64 998.19 998.25 998.57 998.96 998.62 997.64 996.79 994.94 994.83 994.53 994.38 994.42 994.50 994.93 995.43 996.09
1019.32 1017.80 1016.67 1015.80 1015.24 1015.87 1015.42 1015.18 1014.14 1012.97 1012.35 1011.14 1010.11 1009.27 1008.36 1007.59 1006.46 1005.70 1005.34 1005.40 1005.08 1003.80 1002.53 1002.10 1000.45 998.40 997.40 996.82 996.76 996.99 996.94 997.47 997.51 997.92 997.57 996.43 994.58 994.28 994.06 994.09 994.04 993.92 994.25 994.92 995.44
1019.87 1019.02 1017.35 1016.74 1016.69 1016.88 1016.56 1015.68 1014.65 1013.85 1013.11 1012.49 1011.28 1010.54 1009.78 1008.76 1007.89 1007.23 1006.77 1006.70 1006.11 1004.88 1004.37 1003.31 1001.61 999.80 998.56 997.85 997.34 996.62 996.89 997.16 997.34 996.98 996.30 996.24 994.17 994.03 994.02 994.08 994.09 994.06 994.24 994.89 995.38
1020.30 1019.05 1017.99 1018.01 1018.33 1017.96 1017.29 1016.16 1015.13 1014.37 1013.97 1013.75 1013.01 1011.83 1010.81 1009.80 1009.12 1008.44 1007.92 1007.46 1007.10 1006.22 1005.48 1004.40 1002.94 1000.94 998.91 998.47 999.04 998.15 997.25 997.13 997.01 996.29 995.48 994.00 994.34 994.08 993.63 993.56 993.72 993.89 993.96 994.56 994.93
1020.70 1020.02 1019.72 1018.67 1018.23 1018.12 1017.88 1017.00 1015.80 1014.97 1014.73 1014.60 1013.95 1013.68 1012.98 1011.22 1010.04 1009.39 1009.08 1008.46 1007.78 1007.45 1006.45 1005.67 1004.13 1003.14 1001.95 1001.11 1000.28 999.52 998.65 997.94 996.83 995.80 994.29 994.47 993.72 994.08 994.13 993.84 993.52 993.64 993.79 994.06 994.53
1020.58 1020.27 1020.25 1019.68 1018.92 1018.25 1017.47 1016.88 1016.29 1015.65 1015.56 1014.71 1014.41 1014.19 1013.56 1012.58 1011.57 1010.60 1010.23 1009.57 1008.73 1008.22 1007.54 1007.11 1005.47 1004.47 1002.76 1001.71 1000.60 999.41 998.51 997.68 996.96 996.34 995.51 994.76 993.74 994.06 994.00 994.00 993.75 993.45 993.40 993.47 993.60
1020.38 1020.20 1020.31 1019.54 1018.93 1018.29 1017.40 1016.88 1016.56 1016.19 1015.45 1014.96 1014.97 1014.35 1013.40 1012.52 1012.21 1011.47 1010.77 1010.26 1009.76 1009.40 1008.59 1007.90 1006.61 1005.30 1003.33 1002.23 1000.65 998.44 996.80 996.75 996.54 996.09 995.57 994.28 994.24 994.30 993.86 994.00 993.67 993.53 993.47 993.41 993.24
Thickness
5719 5722 5725 5728 5731 5734 5737 5740 5742 5744 5746 5748 5749 5752 5754 5759 5765 5771 5782 5810 5807 5806 5803 5798 5794 5793 5792 5784 5787 5783 5764 5764 5773 5772 5785 5799 5791 5792 5794 5783 5785 5786 5782 5784 5776
5717 5721 5723 5727 5730 5734 5737 5740 5743 5746 5747 5748 5750 5751 5754 5757 5764 5778 5819 5816 5812 5810 5799 5793 5787 5789 5780 5780 5781 5775 5766 5780 5793 5794 5793 5797 5798 5791 5783 5780 5777 5777 5783 5780 5774
5714 5718 5721 5725 5729 5734 5738 5741 5743 5746 5748 5749 5750 5751 5754 5757 5769 5803 5823 5818 5813 5812 5804 5798 5793 5788 5775 5777 5776 5778 5777 5794 5800 5805 5807 5799 5797 5800 5786 5774 5782 5775 5774 5773 5772
5709 5713 5717 5721 5727 5733 5737 5743 5747 5748 5750 5752 5750 5750 5753 5757 5771 5813 5822 5819 5812 5810 5802 5792 5786 5780 5776 5772 5783 5772 5789 5797 5804 5810 5806 5797 5803 5793 5793 5791 5798 5785 5781 5775 5770
5704 5708 5713 5718 5724 5731 5738 5744 5749 5752 5753 5753 5752 5750 5753 5763 5786 5813 5813 5810 5808 5806 5800 5791 5781 5782 5775 5780 5781 5776 5789 5798 5806 5810 5809 5809 5794 5796 5790 5798 5797 5787 5777 5772 5771
5698 5703 5708 5714 5721 5728 5736 5744 5750 5755 5757 5756 5753 5750 5753 5763 5813 5812 5811 5806 5806 5802 5797 5795 5787 5787 5780 5780 5782 5796 5793 5798 5808 5812 5813 5803 5798 5794 5794 5795 5786 5780 5778 5774 5771
5694 5698 5703 5710 5717 5726 5735 5744 5753 5761 5763 5759 5755 5751 5756 5791 5810 5811 5810 5806 5808 5805 5794 5798 5793 5787 5786 5778 5794 5797 5786 5796 5807 5811 5809 5812 5789 5791 5798 5794 5784 5775 5779 5776 5775
5691 5696 5701 5707 5715 5724 5733 5743 5754 5763 5766 5762 5755 5751 5770 5805 5806 5803 5804 5797 5798 5798 5795 5794 5790 5786 5779 5788 5787 5785 5789 5782 5809 5812 5815 5810 5792 5804 5804 5797 5786 5779 5777 5778 5778
5683 5688 5696 5704 5713 5724 5731 5739 5746 5755 5756 5753 5749 5750 5777 5799 5798 5806 5803 5796 5791 5785 5785 5786 5781 5773 5774 5765 5765 5776 5780 5783 5796 5815 5810 5807 5801 5815 5810 5802 5789 5784 5783 5781 5780
5675 5680 5687 5696 5707 5720 5729 5734 5737 5740 5741 5744 5745 5746 5782 5793 5801 5802 5799 5797 5783 5776 5770 5771 5767 5763 5767 5764 5753 5760 5767 5782 5788 5810 5812 5803 5806 5808 5811 5807 5799 5791 5788 5786 5786
5664 5671 5677 5688 5695 5708 5720 5726 5732 5736 5736 5755 5761 5766 5781 5796 5801 5793 5796 5788 5782 5773 5762 5766 5756 5762 5768 5768 5775 5771 5772 5779 5795 5808 5806 5805 5809 5811 5810 5807 5801 5797 5793 5793 5796
5652 5659 5667 5676 5683 5693 5703 5704 5689 5685 5717 5750 5754 5761 5772 5776 5777 5784 5792 5780 5773 5764 5764 5754 5767 5773 5770 5767 5763 5765 5767 5775 5787 5797 5797 5805 5805 5814 5814 5815 5811 5805 5798 5800 5797
5637 5644 5655 5663 5670 5674 5674 5676 5672 5676 5692 5749 5754 5763 5766 5768 5768 5780 5786 5785 5773 5763 5765 5771 5780 5775 5764 5760 5758 5764 5768 5776 5778 5787 5798 5796 5796 5799 5811 5813 5815 5813 5808 5801 5806
5621 5627 5636 5646 5658 5650 5659 5656 5659 5664 5691 5742 5750 5763 5766 5766 5764 5786 5787 5783 5771 5768 5763 5763 5777 5770 5764 5762 5764 5759 5778 5775 5772 5764 5759 5792 5776 5791 5808 5804 5810 5814 5814 5814 5813
5606 5611 5619 5623 5626 5633 5638 5641 5646 5649 5690 5735 5741 5760 5760 5761 5771 5771 5789 5776 5772 5773 5767 5773 5772 5766 5763 5776 5770 5769 5779 5773 5773 5765 5765 5775 5767 5806 5804 5801 5812 5819 5824 5823 5827
5588 5595 5598 5603 5605 5614 5619 5626 5635 5654 5675 5717 5726 5731 5735 5749 5760 5765 5768 5777 5779 5764 5770 5774 5778 5771 5779 5777 5774 5777 5765 5762 5760 5763 5739 5777 5770 5799 5799 5818 5823 5826 5830 5830 5831
5566 5575 5577 5580 5590 5596 5600 5615 5631 5642 5689 5682 5692 5705 5715 5727 5741 5749 5750 5755 5760 5743 5745 5759 5762 5776 5779 5762 5768 5765 5755 5730 5721 5728 5747 5787 5761 5798 5823 5832 5840 5836 5837 5843 5840
5539 5548 5550 5555 5561 5570 5585 5602 5607 5635 5637 5654 5667 5683 5697 5706 5720 5728 5739 5742 5761 5762 5753 5747 5736 5769 5785 5782 5769 5763 5764 5750 5723 5743 5755 5764 5769 5806 5832 5838 5841 5846 5851 5851 5843
5514 5514 5519 5523 5529 5540 5559 5575 5590 5593 5600 5616 5643 5657 5671 5682 5692 5708 5720 5735 5749 5754 5746 5747 5751 5779 5782 5788 5781 5760 5752 5786 5756 5741 5746 5776 5796 5813 5829 5839 5843 5845 5848 5850 5854
5493 5490 5494 5492 5497 5509 5523 5533 5547 5559 5575 5593 5602 5619 5633 5651 5669 5686 5697 5687 5712 5719 5728 5751 5738 5771 5777 5778 5779 5768 5771 5732 5744 5721 5727 5768 5773 5805 5823 5834 5844 5846 5848 5857 5864
5477 5481 5481 5478 5480 5486 5488 5491 5508 5524 5538 5559 5575 5588 5605 5617 5638 5655 5661 5667 5682 5700 5715 5724 5739 5745 5763 5760 5764 5754 5754 5758 5761 5757 5748 5753 5791 5825 5831 5842 5848 5857 5864 5868 5871
5457 5469 5461 5462 5465 5450 5459 5457 5475 5496 5507 5526 5547 5562 5578 5594 5614 5629 5637 5646 5661 5679 5688 5698 5715 5734 5745 5771 5782 5776 5769 5766 5747 5738 5761 5773 5789 5833 5841 5848 5852 5860 5868 5870 5873
5448 5439 5448 5449 5439 5432 5433 5440 5457 5467 5481 5493 5513 5531 5548 5568 5585 5599 5611 5625 5639 5657 5662 5679 5690 5709 5725 5746 5757 5760 5768 5769 5769 5776 5758 5749 5784 5836 5839 5839 5847 5852 5861 5864 5865
5442 5447 5443 5431 5419 5418 5419 5431 5439 5452 5456 5459 5468 5499 5517 5538 5556 5569 5585 5602 5616 5632 5646 5661 5668 5694 5726 5733 5718 5727 5751 5762 5761 5753 5770 5783 5791 5816 5833 5838 5845 5850 5858 5859 5862
5430 5429 5419 5424 5421 5416 5413 5418 5428 5434 5441 5443 5445 5451 5464 5504 5529 5544 5558 5574 5593 5603 5622 5636 5648 5661 5679 5691 5702 5707 5719 5732 5744 5769 5772 5789 5794 5807 5821 5830 5842 5849 5851 5853 5856
5428 5422 5409 5403 5410 5410 5417 5419 5421 5427 5425 5438 5440 5439 5449 5458 5491 5514 5528 5545 5563 5581 5594 5605 5626 5640 5659 5680 5696 5703 5718 5727 5739 5750 5759 5779 5787 5819 5828 5832 5835 5844 5850 5852 5857
5426 5419 5403 5404 5402 5405 5412 5415 5413 5420 5427 5431 5424 5435 5447 5462 5470 5488 5509 5524 5541 5551 5567 5582 5604 5620 5641 5661 5678 5695 5727 5732 5737 5753 5760 5762 5786 5810 5817 5816 5829 5835 5840 5844 5853